Time,TemperatureF,DewpointF,PressureIn,WindDirection,WindDirectionDegrees,WindSpeedMPH,WindSpeedGustMPH,Humidity,HourlyPrecipIn,Conditions,Clouds,dailyrainin,SoftwareType,DateUTC
2013-05-06 00:02:00,37.0,32.0,-100.00,North,-999,-999.0,-999.0,81,-99.99,,,-99.99,,2013-05-06 06:02:00,
2013-05-06 00:12:00,37.0,32.0,-100.00,North,-999,-999.0,-999.0,81,-99.99,,,-99.99,,2013-05-06 06:12:00,
2013-05-06 00:21:00,37.0,32.0,-100.00,North,-999,-999.0,-999.0,81,-99.99,,,-99.99,,2013-05-06 06:21:00,
2013-05-06 00:31:00,36.0,31.0,-100.00,North,-999,-999.0,-999.0,81,-99.99,,,-99.99,,2013-05-06 06:31:00,
2013-05-06 00:41:00,36.0,31.0,-100.00,North,-999,-999.0,-999.0,81,-99.99,,,-99.99,,2013-05-06 06:41:00,
2013-05-06 00:52:00,36.0,30.0,-100.00,North,-999,-999.0,-999.0,80,-99.99,,,-99.99,,2013-05-06 06:52:00,
2013-05-06 01:01:00,35.0,31.0,-100.00,North,-999,-999.0,-999.0,86,-99.99,,,-99.99,,2013-05-06 07:01:00,
2013-05-06 01:11:00,35.0,31.0,-100.00,North,-999,-999.0,-999.0,86,-99.99,,,-99.99,,2013-05-06 07:11:00,
2013-05-06 01:22:00,33.0,31.0,-100.00,North,-999,-999.0,-999.0,94,-99.99,,,-99.99,,2013-05-06 07:22:00,
2013-05-06 01:31:00,33.0,31.0,-100.00,North,-999,-999.0,-999.0,92,-99.99,,,-99.99,,2013-05-06 07:31:00,
2013-05-06 01:42:00,33.0,31.0,-100.00,North,-999,-999.0,-999.0,92,-99.99,,,-99.99,,2013-05-06 07:42:00,
2013-05-06 01:52:00,33.0,31.0,-100.00,North,-999,-999.0,-999.0,91,-99.99,,,-99.99,,2013-05-06 07:52:00,
2013-05-06 02:01:00,34.0,31.0,-100.00,North,-999,-999.0,-999.0,90,-99.99,,,-99.99,,2013-05-06 08:01:00,
2013-05-06 02:12:00,34.0,31.0,-100.00,North,-999,-999.0,-999.0,90,-99.99,,,-99.99,,2013-05-06 08:12:00,
2013-05-06 02:22:00,34.0,31.0,-100.00,North,-999,-999.0,-999.0,90,-99.99,,,-99.99,,2013-05-06 08:22:00,
2013-05-06 02:31:00,33.0,31.0,-100.00,North,-999,-999.0,-999.0,91,-99.99,,,-99.99,,2013-05-06 08:31:00,
2013-05-06 02:41:00,33.0,31.0,-100.00,North,-999,-999.0,-999.0,91,-99.99,,,-99.99,,2013-05-06 08:41:00,
2013-05-06 02:52:00,33.0,31.0,-100.00,North,-999,-999.0,-999.0,91,-99.99,,,-99.99,,2013-05-06 08:52:00,
2013-05-06 03:01:00,33.0,31.0,-100.00,North,-999,-999.0,-999.0,91,-99.99,,,-99.99,,2013-05-06 09:01:00,
2013-05-06 03:11:00,33.0,31.0,-100.00,North,-999,-999.0,-999.0,91,-99.99,,,-99.99,,2013-05-06 09:11:00,
2013-05-06 03:22:00,33.0,30.0,-100.00,North,-999,-999.0,-999.0,90,-99.99,,,-99.99,,2013-05-06 09:22:00,
2013-05-06 03:32:00,34.0,30.0,-100.00,North,-999,-999.0,-999.0,86,-99.99,,,-99.99,,2013-05-06 09:32:00,
2013-05-06 03:42:00,34.0,30.0,-100.00,North,-999,-999.0,-999.0,86,-99.99,,,-99.99,,2013-05-06 09:42:00,
2013-05-06 03:53:00,34.0,30.0,-100.00,North,-999,-999.0,-999.0,85,-99.99,,,-99.99,,2013-05-06 09:53:00,
2013-05-06 04:02:00,34.0,29.0,-100.00,North,-999,-999.0,-999.0,81,-99.99,,,-99.99,,2013-05-06 10:02:00,
2013-05-06 04:12:00,34.0,29.0,-100.00,North,-999,-999.0,-999.0,81,-99.99,,,-99.99,,2013-05-06 10:12:00,
2013-05-06 04:22:00,35.0,29.0,-100.00,North,-999,-999.0,-999.0,79,-99.99,,,-99.99,,2013-05-06 10:22:00,
2013-05-06 04:32:00,35.0,29.0,-100.00,North,-999,-999.0,-999.0,78,-99.99,,,-99.99,,2013-05-06 10:32:00,
2013-05-06 04:41:00,35.0,29.0,-100.00,North,-999,-999.0,-999.0,78,-99.99,,,-99.99,,2013-05-06 10:41:00,
2013-05-06 04:52:00,33.0,28.0,-100.00,North,-999,-999.0,-999.0,82,-99.99,,,-99.99,,2013-05-06 10:52:00,
2013-05-06 05:02:00,33.0,28.0,-100.00,North,-999,-999.0,-999.0,80,-99.99,,,-99.99,,2013-05-06 11:02:00,
2013-05-06 05:12:00,33.0,28.0,-100.00,North,-999,-999.0,-999.0,80,-99.99,,,-99.99,,2013-05-06 11:12:00,
2013-05-06 05:22:00,33.0,28.0,-100.00,North,-999,-999.0,-999.0,80,-99.99,,,-99.99,,2013-05-06 11:22:00,
2013-05-06 05:31:00,33.0,28.0,-100.00,North,-999,-999.0,-999.0,80,-99.99,,,-99.99,,2013-05-06 11:31:00,
2013-05-06 05:42:00,33.0,28.0,-100.00,North,-999,-999.0,-999.0,80,-99.99,,,-99.99,,2013-05-06 11:42:00,
2013-05-06 05:52:00,33.0,28.0,-100.00,North,-999,-999.0,-999.0,82,-99.99,,,-99.99,,2013-05-06 11:52:00,
2013-05-06 06:01:00,33.0,27.0,-100.00,North,-999,-999.0,-999.0,79,-99.99,,,-99.99,,2013-05-06 12:01:00,
2013-05-06 06:12:00,33.0,27.0,-100.00,North,-999,-999.0,-999.0,79,-99.99,,,-99.99,,2013-05-06 12:12:00,
2013-05-06 06:21:00,33.0,27.0,-100.00,North,-999,-999.0,-999.0,79,-99.99,,,-99.99,,2013-05-06 12:21:00,
2013-05-06 06:32:00,33.0,27.0,-100.00,North,-999,-999.0,-999.0,79,-99.99,,,-99.99,,2013-05-06 12:32:00,
2013-05-06 06:41:00,33.0,27.0,-100.00,North,-999,-999.0,-999.0,79,-99.99,,,-99.99,,2013-05-06 12:41:00,
2013-05-06 06:52:00,34.0,27.0,-100.00,North,-999,-999.0,-999.0,75,-99.99,,,-99.99,,2013-05-06 12:52:00,
2013-05-06 07:01:00,34.0,26.0,-100.00,North,-999,-999.0,-999.0,73,-99.99,,,-99.99,,2013-05-06 13:01:00,
2013-05-06 07:11:00,34.0,26.0,-100.00,North,-999,-999.0,-999.0,73,-99.99,,,-99.99,,2013-05-06 13:11:00,
2013-05-06 07:21:00,35.0,27.0,-100.00,North,-999,-999.0,-999.0,71,-99.99,,,-99.99,,2013-05-06 13:21:00,
2013-05-06 07:31:00,35.0,27.0,-100.00,North,-999,-999.0,-999.0,71,-99.99,,,-99.99,,2013-05-06 13:31:00,
2013-05-06 07:42:00,35.0,27.0,-100.00,North,-999,-999.0,-999.0,71,-99.99,,,-99.99,,2013-05-06 13:42:00,
2013-05-06 08:01:00,37.0,28.0,-100.00,North,-999,-999.0,-999.0,71,-99.99,,,-99.99,,2013-05-06 14:01:00,
2013-05-06 08:11:00,37.0,28.0,-100.00,North,-999,-999.0,-999.0,71,-99.99,,,-99.99,,2013-05-06 14:11:00,
2013-05-06 08:21:00,38.0,30.0,-100.00,North,-999,-999.0,-999.0,72,-99.99,,,-99.99,,2013-05-06 14:21:00,
2013-05-06 08:32:00,41.0,31.0,-100.00,North,-999,-999.0,-999.0,67,-99.99,,,-99.99,,2013-05-06 14:32:00,
2013-05-06 08:42:00,41.0,31.0,-100.00,North,-999,-999.0,-999.0,67,-99.99,,,-99.99,,2013-05-06 14:42:00,
2013-05-06 08:52:00,40.0,32.0,-100.00,North,-999,-999.0,-999.0,74,-99.99,,,-99.99,,2013-05-06 14:52:00,
2013-05-06 09:01:00,38.0,32.0,-100.00,North,-999,-999.0,-999.0,78,-99.99,,,-99.99,,2013-05-06 15:01:00,
2013-05-06 09:11:00,38.0,32.0,-100.00,North,-999,-999.0,-999.0,78,-99.99,,,-99.99,,2013-05-06 15:11:00,
2013-05-06 09:21:00,39.0,32.0,-100.00,North,-999,-999.0,-999.0,76,-99.99,,,-99.99,,2013-05-06 15:21:00,
2013-05-06 09:33:00,40.0,33.0,-100.00,North,-999,-999.0,-999.0,75,-99.99,,,-99.99,,2013-05-06 15:33:00,
2013-05-06 09:42:00,40.0,33.0,-100.00,North,-999,-999.0,-999.0,75,-99.99,,,-99.99,,2013-05-06 15:42:00,
2013-05-06 09:53:00,41.0,33.0,-100.00,North,-999,-999.0,-999.0,73,-99.99,,,-99.99,,2013-05-06 15:53:00,
2013-05-06 10:03:00,41.0,29.0,-100.00,North,-999,-999.0,-999.0,62,-99.99,,,-99.99,,2013-05-06 16:03:00,
2013-05-06 10:13:00,41.0,29.0,-100.00,North,-999,-999.0,-999.0,62,-99.99,,,-99.99,,2013-05-06 16:13:00,
2013-05-06 10:23:00,42.0,28.0,-100.00,North,-999,-999.0,-999.0,57,-99.99,,,-99.99,,2013-05-06 16:23:00,
2013-05-06 10:32:00,42.0,30.0,-100.00,North,-999,-999.0,-999.0,63,-99.99,,,-99.99,,2013-05-06 16:32:00,
2013-05-06 10:41:00,42.0,30.0,-100.00,North,-999,-999.0,-999.0,63,-99.99,,,-99.99,,2013-05-06 16:41:00,
2013-05-06 10:52:00,42.0,28.0,-100.00,North,-999,-999.0,-999.0,58,-99.99,,,-99.99,,2013-05-06 16:52:00,
2013-05-06 11:02:00,43.0,34.0,-100.00,North,-999,-999.0,-999.0,69,-99.99,,,-99.99,,2013-05-06 17:02:00,
2013-05-06 11:12:00,43.0,34.0,-100.00,North,-999,-999.0,-999.0,69,-99.99,,,-99.99,,2013-05-06 17:12:00,
2013-05-06 11:23:00,42.0,31.0,-100.00,North,-999,-999.0,-999.0,64,-99.99,,,-99.99,,2013-05-06 17:23:00,
2013-05-06 11:31:00,42.0,31.0,-100.00,North,-999,-999.0,-999.0,64,-99.99,,,-99.99,,2013-05-06 17:31:00,
2013-05-06 11:42:00,42.0,31.0,-100.00,North,-999,-999.0,-999.0,64,-99.99,,,-99.99,,2013-05-06 17:42:00,
2013-05-06 11:52:00,45.0,32.0,-100.00,North,-999,-999.0,-999.0,59,-99.99,,,-99.99,,2013-05-06 17:52:00,
2013-05-06 12:01:00,45.0,32.0,-100.00,North,-999,-999.0,-999.0,61,-99.99,,,-99.99,,2013-05-06 18:01:00,
2013-05-06 12:12:00,45.0,32.0,-100.00,North,-999,-999.0,-999.0,61,-99.99,,,-99.99,,2013-05-06 18:12:00,
2013-05-06 12:21:00,48.0,35.0,-100.00,North,-999,-999.0,-999.0,61,-99.99,,,-99.99,,2013-05-06 18:21:00,
2013-05-06 12:31:00,48.0,35.0,-100.00,North,-999,-999.0,-999.0,61,-99.99,,,-99.99,,2013-05-06 18:31:00,
2013-05-06 12:43:00,48.0,35.0,-100.00,North,-999,-999.0,-999.0,61,-99.99,,,-99.99,,2013-05-06 18:43:00,
2013-05-06 12:52:00,50.0,34.0,-100.00,North,-999,-999.0,-999.0,53,-99.99,,,-99.99,,2013-05-06 18:52:00,
2013-05-06 13:01:00,51.0,34.0,-100.00,North,-999,-999.0,-999.0,53,-99.99,,,-99.99,,2013-05-06 19:01:00,
2013-05-06 13:11:00,51.0,34.0,-100.00,North,-999,-999.0,-999.0,53,-99.99,,,-99.99,,2013-05-06 19:11:00,
2013-05-06 13:22:00,52.0,32.0,-100.00,North,-999,-999.0,-999.0,46,-99.99,,,-99.99,,2013-05-06 19:22:00,
2013-05-06 13:32:00,54.0,30.0,-100.00,North,-999,-999.0,-999.0,39,-99.99,,,-99.99,,2013-05-06 19:32:00,
2013-05-06 13:41:00,54.0,30.0,-100.00,North,-999,-999.0,-999.0,39,-99.99,,,-99.99,,2013-05-06 19:41:00,
2013-05-06 13:52:00,54.0,29.0,-100.00,North,-999,-999.0,-999.0,38,-99.99,,,-99.99,,2013-05-06 19:52:00,
2013-05-06 14:01:00,53.0,29.0,-100.00,North,-999,-999.0,-999.0,40,-99.99,,,-99.99,,2013-05-06 20:01:00,
2013-05-06 14:11:00,53.0,29.0,-100.00,North,-999,-999.0,-999.0,40,-99.99,,,-99.99,,2013-05-06 20:11:00,
2013-05-06 14:21:00,54.0,29.0,-100.00,North,-999,-999.0,-999.0,38,-99.99,,,-99.99,,2013-05-06 20:21:00,
2013-05-06 14:32:00,55.0,30.0,-100.00,North,-999,-999.0,-999.0,38,-99.99,,,-99.99,,2013-05-06 20:32:00,
2013-05-06 14:41:00,55.0,30.0,-100.00,North,-999,-999.0,-999.0,38,-99.99,,,-99.99,,2013-05-06 20:41:00,
2013-05-06 14:52:00,55.0,29.0,-100.00,North,-999,-999.0,-999.0,36,-99.99,,,-99.99,,2013-05-06 20:52:00,
2013-05-06 15:01:00,55.0,26.0,-100.00,North,-999,-999.0,-999.0,32,-99.99,,,-99.99,,2013-05-06 21:01:00,
2013-05-06 15:11:00,55.0,26.0,-100.00,North,-999,-999.0,-999.0,32,-99.99,,,-99.99,,2013-05-06 21:11:00,
2013-05-06 15:21:00,53.0,25.0,-100.00,North,-999,-999.0,-999.0,33,-99.99,,,-99.99,,2013-05-06 21:21:00,
2013-05-06 15:32:00,52.0,25.0,-100.00,North,-999,-999.0,-999.0,34,-99.99,,,-99.99,,2013-05-06 21:32:00,
2013-05-06 15:42:00,52.0,25.0,-100.00,North,-999,-999.0,-999.0,34,-99.99,,,-99.99,,2013-05-06 21:42:00,
2013-05-06 15:53:00,53.0,23.0,-100.00,North,-999,-999.0,-999.0,31,-99.99,,,-99.99,,2013-05-06 21:53:00,
2013-05-06 16:03:00,53.0,22.0,-100.00,North,-999,-999.0,-999.0,29,-99.99,,,-99.99,,2013-05-06 22:03:00,
2013-05-06 16:12:00,53.0,22.0,-100.00,North,-999,-999.0,-999.0,29,-99.99,,,-99.99,,2013-05-06 22:12:00,
2013-05-06 16:22:00,53.0,18.0,-100.00,North,-999,-999.0,-999.0,25,-99.99,,,-99.99,,2013-05-06 22:22:00,
2013-05-06 16:33:00,55.0,22.0,-100.00,North,-999,-999.0,-999.0,27,-99.99,,,-99.99,,2013-05-06 22:33:00,
2013-05-06 16:45:00,55.0,22.0,-100.00,North,-999,-999.0,-999.0,27,-99.99,,,-99.99,,2013-05-06 22:45:00,
2013-05-06 16:52:00,54.0,26.0,-100.00,North,-999,-999.0,-999.0,33,-99.99,,,-99.99,,2013-05-06 22:52:00,
2013-05-06 17:02:00,49.0,26.0,-100.00,North,-999,-999.0,-999.0,40,-99.99,,,-99.99,,2013-05-06 23:02:00,
2013-05-06 17:12:00,49.0,26.0,-100.00,North,-999,-999.0,-999.0,40,-99.99,,,-99.99,,2013-05-06 23:12:00,
2013-05-06 17:22:00,50.0,27.0,-100.00,North,-999,-999.0,-999.0,40,-99.99,,,-99.99,,2013-05-06 23:22:00,
2013-05-06 17:31:00,50.0,26.0,-100.00,North,-999,-999.0,-999.0,39,-99.99,,,-99.99,,2013-05-06 23:31:00,
2013-05-06 17:41:00,50.0,26.0,-100.00,North,-999,-999.0,-999.0,39,-99.99,,,-99.99,,2013-05-06 23:41:00,
2013-05-06 17:52:00,48.0,26.0,-100.00,North,-999,-999.0,-999.0,42,-99.99,,,-99.99,,2013-05-06 23:52:00,
2013-05-06 18:01:00,47.0,26.0,-100.00,North,-999,-999.0,-999.0,44,-99.99,,,-99.99,,2013-05-07 00:01:00,
2013-05-06 18:11:00,47.0,26.0,-100.00,North,-999,-999.0,-999.0,44,-99.99,,,-99.99,,2013-05-07 00:11:00,
2013-05-06 18:21:00,45.0,27.0,-100.00,North,-999,-999.0,-999.0,50,-99.99,,,-99.99,,2013-05-07 00:21:00,
2013-05-06 18:31:00,45.0,27.0,-100.00,North,-999,-999.0,-999.0,50,-99.99,,,-99.99,,2013-05-07 00:31:00,
2013-05-06 18:41:00,45.0,27.0,-100.00,North,-999,-999.0,-999.0,50,-99.99,,,-99.99,,2013-05-07 00:41:00,
2013-05-06 18:52:00,42.0,32.0,-100.00,North,-999,-999.0,-999.0,67,-99.99,,,-99.99,,2013-05-07 00:52:00,
2013-05-06 19:01:00,40.0,33.0,-100.00,North,-999,-999.0,-999.0,76,-99.99,,,-99.99,,2013-05-07 01:01:00,
2013-05-06 19:11:00,40.0,33.0,-100.00,North,-999,-999.0,-999.0,76,-99.99,,,-99.99,,2013-05-07 01:11:00,
2013-05-06 19:21:00,40.0,33.0,-100.00,North,-999,-999.0,-999.0,75,-99.99,,,-99.99,,2013-05-07 01:21:00,
2013-05-06 19:31:00,40.0,31.0,-100.00,North,-999,-999.0,-999.0,71,-99.99,,,-99.99,,2013-05-07 01:31:00,
2013-05-06 19:42:00,40.0,31.0,-100.00,North,-999,-999.0,-999.0,71,-99.99,,,-99.99,,2013-05-07 01:42:00,
2013-05-06 19:52:00,41.0,31.0,-100.00,North,-999,-999.0,-999.0,66,-99.99,,,-99.99,,2013-05-07 01:52:00,
2013-05-06 20:02:00,41.0,29.0,-100.00,North,-999,-999.0,-999.0,62,-99.99,,,-99.99,,2013-05-07 02:02:00,
2013-05-06 20:11:00,41.0,29.0,-100.00,North,-999,-999.0,-999.0,62,-99.99,,,-99.99,,2013-05-07 02:11:00,
2013-05-06 20:21:00,42.0,28.0,-100.00,North,-999,-999.0,-999.0,58,-99.99,,,-99.99,,2013-05-07 02:21:00,
2013-05-06 20:31:00,41.0,29.0,-100.00,North,-999,-999.0,-999.0,62,-99.99,,,-99.99,,2013-05-07 02:31:00,
2013-05-06 20:41:00,41.0,29.0,-100.00,North,-999,-999.0,-999.0,62,-99.99,,,-99.99,,2013-05-07 02:41:00,
2013-05-06 20:52:00,41.0,29.0,-100.00,North,-999,-999.0,-999.0,62,-99.99,,,-99.99,,2013-05-07 02:52:00,
2013-05-06 21:01:00,41.0,29.0,-100.00,North,-999,-999.0,-999.0,61,-99.99,,,-99.99,,2013-05-07 03:01:00,
2013-05-06 21:11:00,41.0,29.0,-100.00,North,-999,-999.0,-999.0,61,-99.99,,,-99.99,,2013-05-07 03:11:00,
2013-05-06 21:21:00,40.0,28.0,-100.00,North,-999,-999.0,-999.0,63,-99.99,,,-99.99,,2013-05-07 03:21:00,
2013-05-06 21:32:00,41.0,29.0,-100.00,North,-999,-999.0,-999.0,61,-99.99,,,-99.99,,2013-05-07 03:32:00,
2013-05-06 21:42:00,41.0,29.0,-100.00,North,-999,-999.0,-999.0,61,-99.99,,,-99.99,,2013-05-07 03:42:00,
2013-05-06 21:53:00,41.0,29.0,-100.00,North,-999,-999.0,-999.0,61,-99.99,,,-99.99,,2013-05-07 03:53:00,
2013-05-06 22:02:00,40.0,28.0,-100.00,North,-999,-999.0,-999.0,62,-99.99,,,-99.99,,2013-05-07 04:02:00,
2013-05-06 22:12:00,40.0,28.0,-100.00,North,-999,-999.0,-999.0,62,-99.99,,,-99.99,,2013-05-07 04:12:00,
2013-05-06 22:23:00,40.0,29.0,-100.00,North,-999,-999.0,-999.0,65,-99.99,,,-99.99,,2013-05-07 04:23:00,
2013-05-06 22:33:00,39.0,29.0,-100.00,North,-999,-999.0,-999.0,66,-99.99,,,-99.99,,2013-05-07 04:33:00,
2013-05-06 22:42:00,39.0,29.0,-100.00,North,-999,-999.0,-999.0,66,-99.99,,,-99.99,,2013-05-07 04:42:00,
2013-05-06 22:53:00,39.0,29.0,-100.00,North,-999,-999.0,-999.0,67,-99.99,,,-99.99,,2013-05-07 04:53:00,
2013-05-06 23:02:00,39.0,29.0,-100.00,North,-999,-999.0,-999.0,67,-99.99,,,-99.99,,2013-05-07 05:02:00,
2013-05-06 23:12:00,39.0,29.0,-100.00,North,-999,-999.0,-999.0,67,-99.99,,,-99.99,,2013-05-07 05:12:00,
2013-05-06 23:22:00,39.0,28.0,-100.00,North,-999,-999.0,-999.0,65,-99.99,,,-99.99,,2013-05-07 05:22:00,
2013-05-06 23:32:00,39.0,29.0,-100.00,North,-999,-999.0,-999.0,66,-99.99,,,-99.99,,2013-05-07 05:32:00,
2013-05-06 23:42:00,39.0,29.0,-100.00,North,-999,-999.0,-999.0,66,-99.99,,,-99.99,,2013-05-07 05:42:00,
2013-05-06 23:52:00,39.0,29.0,-100.00,North,-999,-999.0,-999.0,66,-99.99,,,-99.99,,2013-05-07 05:52:00,